GW5874 Weather Reports


time (UTC)temp
C
wind
direction
speed
KPH
gust
KPH
rain 1hr
cm
rain 24hr
cm
rain mn
cm
humidity
%
barometer
mb
20260508132705 15 212 6.4 8.0 0.00 0.00 0.00 81 1014.0
20260508132202 14 231 8.0 11.3 0.00 0.00 0.00 81 1014.0
20260508131657 13 199 6.4 8.0 0.00 0.00 0.00 81 1013.9
20260508131153 13 248 6.4 8.0 0.00 0.00 0.00 81 1013.9
20260508130650 13 216 4.8 8.0 0.00 0.00 0.00 82 1014.1
20260508130147 13 161 3.2 6.4 0.00 0.00 0.00 84 1013.8
20260508125643 12 192 1.6 4.8 0.00 0.00 0.00 87 1014.2
20260508125140 12 103 1.6 4.8 0.00 0.00 0.00 91 1014.0
20260508124638 11 147 3.2 4.8 0.00 0.00 0.00 94 1014.0
20260508124135 11 221 0.0 1.6 0.00 0.00 0.00 97 1014.0
20260508123633 10 193 6.4 8.0 0.00 0.00 0.00 98 1013.9
20260508123130 10 183 3.2 4.8 0.00 0.00 0.00 99 1014.1
20260508122626 10 170 3.2 4.8 0.00 0.00 0.00 99 1014.1
20260508122124 8 195 0.0 0.0 0.00 0.00 0.00 99 1014.1
20260508121622 8 188 1.6 1.6 0.00 0.00 0.00 99 1013.9
20260508121120 7 87 0.0 0.0 0.00 0.00 0.00 99 1014.1
20260508120617 6 65 0.0 0.0 0.00 0.00 0.00 99 1014.1
20260508120115 6 289 0.0 0.0 0.00 0.00 0.00 99 1014.0
20260508115612 6 258 0.0 0.0 0.00 0.00 0.00 99 1014.0
20260508115109 5 289 0.0 1.6 0.00 0.00 0.00 99 1014.0
20260508114606 5 274 0.0 0.0 0.00 0.00 0.00 99 1014.0
20260508114102 5 272 0.0 0.0 0.00 0.00 0.00 99 1014.1
20260508113559 5 272 0.0 0.0 0.00 0.00 0.00 99 1013.9
20260508113057 5 297 0.0 0.0 0.00 0.00 0.00 99 1013.8
20260508112553 6 263 0.0 0.0 0.00 0.00 0.00 99 1013.6
20260508112050 6 263 0.0 0.0 0.00 0.00 0.00 99 1013.8
20260508111547 6 262 0.0 0.0 0.00 0.00 0.00 99 1013.5
20260508111044 6 245 0.0 0.0 0.00 0.00 0.00 99 1013.4
20260508110542 6 245 0.0 0.0 0.00 0.00 0.00 99 1013.4
20260508110038 5 245 0.0 0.0 0.00 0.00 0.00 99 1013.4
20260508105538 5 245 0.0 0.0 0.00 0.00 0.00 99 1013.4
20260508105036 5 245 0.0 0.0 0.00 0.00 0.00 99 1013.5
20260508104534 5 245 0.0 0.0 0.00 0.00 0.00 99 1013.4
20260508104030 5 245 0.0 0.0 0.00 0.00 0.00 99 1013.3
20260508103527 5 245 0.0 0.0 0.00 0.00 0.00 99 1013.4
20260508103025 5 245 0.0 0.0 0.00 0.00 0.00 99 1013.3
20260508102522 5 245 0.0 0.0 0.00 0.00 0.00 99 1013.5
20260508102020 5 245 0.0 0.0 0.00 0.00 0.00 99 1013.3
20260508101517 5 245 0.0 0.0 0.00 0.00 0.00 99 1013.2
20260508101014 5 245 0.0 0.0 0.00 0.00 0.00 98 1013.1
20260508100512 5 245 0.0 0.0 0.00 0.00 0.00 98 1013.0
20260508100009 5 245 0.0 0.0 0.00 0.00 0.00 99 1013.0
20260508095506 5 245 0.0 0.0 0.00 0.00 0.00 99 1013.1
20260508095003 5 245 0.0 0.0 0.00 0.00 0.00 98 1013.1
20260508094500 5 245 0.0 0.0 0.00 0.00 0.00 98 1013.1
20260508093956 6 245 0.0 0.0 0.00 0.00 0.00 98 1013.2
20260508093454 5 245 0.0 0.0 0.00 0.00 0.00 98 1013.0
20260508092951 5 245 0.0 0.0 0.00 0.00 0.00 98 1012.8
20260508092449 5 244 0.0 0.0 0.00 0.00 0.00 98 1013.0
20260508091947 5 244 0.0 0.0 0.00 0.00 0.00 98 1013.0
20260508091443 5 244 0.0 0.0 0.00 0.00 0.00 98 1013.2
20260508090941 5 245 0.0 0.0 0.00 0.00 0.00 98 1013.1
20260508090440 5 245 0.0 0.0 0.00 0.00 0.00 98 1013.0
20260508085935 5 245 0.0 0.0 0.00 0.00 0.00 98 1013.0
20260508085432 5 244 0.0 0.0 0.00 0.00 0.00 98 1012.7
20260508084929 6 245 0.0 0.0 0.00 0.00 0.00 98 1013.0
20260508084425 5 245 0.0 0.0 0.00 0.00 0.00 98 1013.1
20260508083923 5 244 0.0 0.0 0.00 0.00 0.00 98 1013.1
20260508083420 5 244 0.0 0.0 0.00 0.00 0.00 98 1012.8
20260508082920 5 244 0.0 0.0 0.00 0.00 0.00 98 1013.1
20260508082418 6 244 0.0 0.0 0.00 0.00 0.00 98 1013.1
20260508081916 6 244 0.0 0.0 0.00 0.00 0.00 98 1013.1
20260508081412 6 244 0.0 0.0 0.00 0.00 0.00 98 1013.3
20260508080908 6 244 0.0 0.0 0.00 0.00 0.00 98 1013.3
20260508080407 6 245 0.0 0.0 0.00 0.00 0.00 98 1013.4
20260508075903 6 245 0.0 0.0 0.00 0.00 0.00 98 1013.4
20260508075400 6 245 0.0 0.0 0.00 0.00 0.00 98 1013.3
20260508074858 6 244 0.0 0.0 0.00 0.00 0.00 98 1013.4
20260508074354 6 244 0.0 0.0 0.00 0.00 0.00 98 1013.4
20260508073852 6 245 0.0 0.0 0.00 0.00 0.00 98 1013.4
20260508073350 6 245 0.0 0.0 0.00 0.00 0.00 98 1013.6
20260508072846 6 245 0.0 0.0 0.00 0.00 0.00 98 1013.6
20260508072342 6 245 0.0 0.0 0.00 0.00 0.00 98 1013.5
20260508071839 6 244 0.0 0.0 0.00 0.00 0.00 98 1013.8
20260508071338 6 244 0.0 0.0 0.00 0.00 0.00 98 1013.7
20260508070835 6 244 0.0 0.0 0.00 0.00 0.00 98 1013.7
20260508070333 6 244 0.0 0.0 0.00 0.00 0.00 97 1013.8
20260508065831 6 244 0.0 0.0 0.00 0.00 0.00 97 1014.1
20260508065329 6 244 0.0 0.0 0.00 0.00 0.00 97 1014.0
20260508064827 6 244 0.0 0.0 0.00 0.00 0.00 97 1014.0
20260508064324 7 245 0.0 0.0 0.00 0.00 0.00 97 1014.1
20260508063821 7 245 0.0 0.0 0.00 0.00 0.00 97 1014.1
20260508063320 7 245 0.0 0.0 0.00 0.00 0.00 97 1014.0
20260508062816 7 245 0.0 0.0 0.00 0.00 0.00 97 1013.9
20260508062314 7 245 0.0 0.0 0.00 0.00 0.00 97 1014.2
20260508061810 7 245 0.0 0.0 0.00 0.00 0.00 97 1014.1
20260508061308 6 245 0.0 0.0 0.00 0.00 0.00 97 1014.2
20260508060804 6 244 0.0 0.0 0.00 0.00 0.00 97 1014.1
20260508060302 6 244 0.0 0.0 0.00 0.00 0.00 97 1014.1
20260508055757 6 245 0.0 0.0 0.00 0.00 0.00 97 1014.3
20260508055255 6 245 0.0 0.0 0.00 0.00 0.00 97 1014.1
20260508054751 7 245 0.0 0.0 0.00 0.00 0.00 97 1014.2
20260508054249 7 245 0.0 0.0 0.00 0.00 0.00 96 1014.2
20260508053745 7 245 0.0 0.0 0.00 0.00 0.00 96 1014.3
20260508053243 7 244 0.0 0.0 0.00 0.00 0.00 96 1014.2
20260508052740 7 244 0.0 0.0 0.00 0.00 0.00 96 1014.3
20260508052237 7 245 0.0 0.0 0.00 0.00 0.00 96 1014.5
20260508051733 7 245 0.0 0.0 0.00 0.00 0.00 96 1014.3
20260508051228 7 245 0.0 0.0 0.00 0.00 0.00 96 1014.4
20260508050725 7 244 0.0 0.0 0.00 0.00 0.00 96 1014.2
20260508050223 7 244 0.0 0.0 0.00 0.00 0.00 96 1014.6
20260508045718 7 244 0.0 0.0 0.00 0.00 0.00 96 1014.4
20260508045216 7 244 0.0 0.0 0.00 0.00 0.00 96 1014.5
20260508044713 7 244 0.0 0.0 0.00 0.00 0.00 95 1014.6
20260508044210 7 245 0.0 0.0 0.00 0.00 0.00 95 1014.8
20260508043705 7 245 0.0 0.0 0.00 0.00 0.00 95 1014.7
20260508043204 7 245 0.0 0.0 0.00 0.00 0.00 95 1014.7
20260508042700 7 244 0.0 0.0 0.00 0.00 0.00 95 1014.8
20260508042157 7 244 0.0 0.0 0.00 0.00 0.00 94 1014.8
20260508041653 7 244 0.0 0.0 0.00 0.00 0.00 94 1014.9
20260508041151 8 244 0.0 0.0 0.00 0.00 0.00 94 1015.0
20260508040647 8 245 0.0 0.0 0.00 0.00 0.00 94 1014.9
20260508040144 8 244 0.0 1.6 0.00 0.00 0.00 94 1014.9
20260508035641 8 244 0.0 0.0 0.00 0.00 0.00 94 1014.7
20260508035139 8 244 0.0 0.0 0.00 0.00 0.00 94 1014.8
20260508034636 8 244 0.0 0.0 0.00 0.00 0.00 93 1014.9
20260508034133 8 244 0.0 0.0 0.00 0.00 0.00 93 1014.9
20260508033630 8 244 0.0 0.0 0.00 0.00 0.00 93 1014.9
20260508033128 8 244 0.0 0.0 0.00 0.00 0.00 92 1014.9
20260508032624 8 244 0.0 0.0 0.00 0.00 0.00 92 1015.0
20260508032122 8 244 0.0 0.0 0.00 0.00 0.00 92 1015.0
20260508031619 8 244 0.0 0.0 0.00 0.00 0.00 91 1015.1
20260508031115 9 243 0.0 0.0 0.00 0.00 0.00 91 1015.1
20260508030611 9 244 0.0 0.0 0.00 0.00 0.00 90 1015.0
20260508030110 9 244 0.0 0.0 0.00 0.00 0.00 90 1015.1
20260508025605 9 244 0.0 0.0 0.00 0.00 0.00 89 1015.0
20260508025103 9 244 0.0 0.0 0.00 0.00 0.00 88 1014.9
20260508024558 10 244 0.0 0.0 0.00 0.00 0.00 88 1015.1
20260508024056 10 244 0.0 0.0 0.00 0.00 0.00 87 1015.0
20260508023552 10 244 0.0 0.0 0.00 0.00 0.00 86 1015.0
20260508023050 10 244 0.0 0.0 0.00 0.00 0.00 86 1015.0
20260508022545 10 243 0.0 0.0 0.00 0.00 0.00 86 1014.9
20260508022043 10 244 0.0 0.0 0.00 0.00 0.00 85 1014.8
20260508021538 11 244 0.0 0.0 0.00 0.00 0.00 83 1014.8
20260508021034 11 244 0.0 0.0 0.00 0.00 0.00 83 1014.6
20260508020532 11 244 0.0 0.0 0.00 0.00 0.00 83 1014.6
20260508020030 11 244 0.0 0.0 0.00 0.00 0.00 82 1014.6
20260508015527 11 244 0.0 0.0 0.00 0.00 0.00 80 1014.5
20260508015024 12 244 0.0 0.0 0.00 0.00 0.00 79 1014.2
20260508014520 11 244 0.0 0.0 0.00 0.00 0.00 78 1014.1
20260508014016 12 243 0.0 0.0 0.00 0.00 0.00 78 1014.0
20260508013512 12 243 0.0 0.0 0.00 0.00 0.00 76 1013.9
20260508013010 12 244 0.0 0.0 0.00 0.00 0.00 74 1014.0
20260508012507 13 243 0.0 0.0 0.00 0.00 0.00 72 1013.9
20260508012004 13 243 0.0 0.0 0.00 0.00 0.00 71 1013.8
20260508011503 14 243 0.0 0.0 0.00 0.00 0.00 69 1013.8
20260508010959 15 244 0.0 0.0 0.00 0.00 0.00 63 1013.8
20260508010456 15 243 0.0 0.0 0.00 0.00 0.00 64 1013.7
20260508005954 15 243 0.0 0.0 0.00 0.00 0.00 62 1013.8
20260508005450 16 243 0.0 0.0 0.00 0.00 0.00 56 1013.8
20260508004947 16 244 0.0 0.0 0.00 0.00 0.00 55 1013.8
20260508004443 17 246 0.0 0.0 0.00 0.00 0.00 54 1013.9
20260508003940 17 216 1.6 1.6 0.00 0.00 0.00 53 1013.7
20260508003436 17 211 6.4 6.4 0.00 0.00 0.00 49 1013.7
20260508002934 17 230 0.0 1.6 0.00 0.00 0.00 50 1013.6
20260508002430 17 190 0.0 1.6 0.00 0.00 0.00 51 1013.7
20260508001926 17 193 4.8 6.4 0.00 0.00 0.00 49 1013.7
20260508001423 18 212 1.6 1.6 0.00 0.00 0.00 49 1013.8
20260508000919 18 221 3.2 4.8 0.00 0.00 0.00 47 1013.7
20260508000415 18 208 3.2 4.8 0.00 0.00 0.00 47 1013.7
20260507235912 18 300 3.2 4.8 0.00 0.00 0.00 45 1013.9
20260507235409 20 181 3.2 4.8 0.00 0.00 0.00 44 1013.9
20260507234906 20 268 0.0 1.6 0.00 0.00 0.00 43 1014.0
20260507234403 20 281 0.0 0.0 0.00 0.00 0.00 45 1013.9
20260507233859 20 194 6.4 8.0 0.00 0.00 0.00 42 1014.0
20260507233356 20 270 0.0 0.0 0.00 0.00 0.00 46 1014.0
20260507232855 21 214 3.2 4.8 0.00 0.00 0.00 43 1014.0
20260507232351 21 262 0.0 0.0 0.00 0.00 0.00 44 1013.9
20260507231849 20 280 0.0 1.6 0.00 0.00 0.00 44 1014.0
20260507231345 20 277 3.2 4.8 0.00 0.00 0.00 42 1014.0
20260507230841 21 259 4.8 6.4 0.00 0.00 0.00 43 1014.0
20260507230339 21 281 1.6 1.6 0.00 0.00 0.00 43 1014.1
20260507225838 21 254 1.6 1.6 0.00 0.00 0.00 44 1014.3
20260507225335 21 236 3.2 4.8 0.00 0.00 0.00 43 1014.2
20260507224831 21 272 3.2 4.8 0.00 0.00 0.00 42 1014.2
20260507224328 20 267 1.6 1.6 0.00 0.00 0.00 48 1014.2
20260507223824 20 321 3.2 4.8 0.00 0.00 0.00 43 1014.3
20260507223320 20 285 3.2 4.8 0.00 0.00 0.00 42 1014.3
20260507222818 20 289 3.2 4.8 0.00 0.00 0.00 43 1014.2
20260507222314 21 312 4.8 8.0 0.00 0.00 0.00 43 1014.4
20260507221811 20 305 4.8 6.4 0.00 0.00 0.00 44 1014.3
20260507221307 20 261 3.2 4.8 0.00 0.00 0.00 43 1014.7
20260507220803 21 280 6.4 8.0 0.00 0.00 0.00 42 1014.6
20260507220302 21 218 3.2 4.8 0.00 0.00 0.00 47 1014.4
20260507215758 21 213 3.2 4.8 0.00 0.00 0.00 42 1014.8
20260507215255 21 289 3.2 4.8 0.00 0.00 0.00 42 1014.9
20260507214752 21 174 6.4 8.0 0.00 0.00 0.00 42 1014.8
20260507214249 21 244 3.2 4.8 0.00 0.00 0.00 43 1014.9
20260507213744 21 276 4.8 6.4 0.00 0.00 0.00 44 1014.8
20260507213242 21 223 8.0 11.3 0.00 0.00 0.00 41 1015.0
20260507212738 21 257 3.2 4.8 0.00 0.00 0.00 47 1014.9
20260507212235 21 272 3.2 4.8 0.00 0.00 0.00 44 1014.9
20260507211732 21 268 6.4 6.4 0.00 0.00 0.00 41 1014.9
20260507211228 21 262 1.6 1.6 0.00 0.00 0.00 48 1015.0
20260507210725 20 311 3.2 6.4 0.00 0.00 0.00 43 1015.1
20260507210222 20 157 6.4 8.0 0.00 0.00 0.00 42 1015.2
20260507205718 20 321 6.4 8.0 0.00 0.00 0.00 43 1015.3
20260507205215 20 311 3.2 4.8 0.00 0.00 0.00 43 1015.4
20260507204711 20 277 1.6 1.6 0.00 0.00 0.00 47 1015.5
20260507204209 21 272 11.3 16.1 0.00 0.00 0.00 41 1015.7
20260507203707 21 275 1.6 1.6 0.00 0.00 0.00 44 1015.6
20260507203204 20 244 3.2 6.4 0.00 0.00 0.00 42 1015.7
20260507202659 20 146 3.2 4.8 0.00 0.00 0.00 42 1015.7
20260507202156 20 232 0.0 1.6 0.00 0.00 0.00 47 1015.8
20260507201651 20 77 3.2 6.4 0.00 0.00 0.00 50 1015.9
20260507201148 18 210 6.4 8.0 0.00 0.00 0.00 45 1016.1
20260507200644 20 171 9.7 11.3 0.00 0.00 0.00 41 1016.1
20260507200140 20 93 3.2 4.8 0.00 0.00 0.00 45 1016.5
20260507195637 20 16 4.8 6.4 0.00 0.00 0.00 44 1016.1
20260507195134 19 291 1.6 1.6 0.00 0.00 0.00 52 1016.4
20260507194631 20 220 8.0 11.3 0.00 0.00 0.00 44 1016.4
20260507194126 19 252 1.6 1.6 0.00 0.00 0.00 49 1016.4
20260507193624 20 230 8.0 11.3 0.00 0.00 0.00 42 1016.6
20260507193121 19 295 1.6 4.8 0.00 0.00 0.00 47 1016.5
20260507192617 19 225 6.4 8.0 0.00 0.00 0.00 43 1016.5
20260507192114 19 287 4.8 6.4 0.00 0.00 0.00 49 1016.6
20260507191610 20 285 1.6 1.6 0.00 0.00 0.00 48 1016.5
20260507191107 20 241 6.4 6.4 0.00 0.00 0.00 47 1016.5
20260507190604 20 261 3.2 4.8 0.00 0.00 0.00 45 1016.7
20260507185601 20 346 3.2 4.8 0.00 0.00 0.00 46 1016.9
20260507185057 19 214 3.2 4.8 0.00 0.00 0.00 46 1016.9
20260507184555 19 226 1.6 4.8 0.00 0.00 0.00 46 1017.2
20260507184053 18 237 1.6 1.6 0.00 0.00 0.00 48 1017.1
20260507183548 18 234 3.2 4.8 0.00 0.00 0.00 39 1017.0
20260507183046 18 185 3.2 6.4 0.00 0.00 0.00 44 1017.1
20260507182542 20 211 8.0 12.9 0.00 0.00 0.00 41 1017.0
20260507182038 19 220 0.0 1.6 0.00 0.00 0.00 49 1017.1
20260507181535 18 256 1.6 1.6 0.00 0.00 0.00 46 1017.2
20260507181031 18 315 4.8 6.4 0.00 0.00 0.00 47 1017.3
20260507180527 18 272 3.2 4.8 0.00 0.00 0.00 46 1017.2
20260507180025 18 212 3.2 4.8 0.00 0.00 0.00 45 1017.5
20260507175521 17 236 6.4 11.3 0.00 0.00 0.00 47 1017.3
20260507175019 18 230 11.3 12.9 0.00 0.00 0.00 42 1017.4
20260507174515 18 244 3.2 4.8 0.00 0.00 0.00 48 1017.6
20260507174013 18 306 3.2 6.4 0.00 0.00 0.00 45 1017.8
20260507173510 18 206 4.8 6.4 0.00 0.00 0.00 49 1017.6
20260507173007 18 202 4.8 6.4 0.00 0.00 0.00 41 1017.9
20260507172503 18 265 0.0 4.8 0.00 0.00 0.00 43 1018.0
20260507172000 18 205 1.6 4.8 0.00 0.00 0.00 41 1018.1
20260507171455 18 274 3.2 4.8 0.00 0.00 0.00 43 1018.1
20260507170953 18 329 4.8 6.4 0.00 0.00 0.00 41 1018.5
20260507170449 18 249 3.2 4.8 0.00 0.00 0.00 47 1018.4
20260507165946 17 276 1.6 1.6 0.00 0.00 0.00 46 1018.5
20260507165442 17 276 4.8 6.4 0.00 0.00 0.00 45 1018.6
20260507164938 18 289 3.2 4.8 0.00 0.00 0.00 47 1018.7
20260507164435 18 221 6.4 8.0 0.00 0.00 0.00 45 1018.7
20260507163932 17 272 3.2 4.8 0.00 0.00 0.00 46 1018.5
20260507163429 17 291 0.0 1.6 0.00 0.00 0.00 48 1018.6
20260507162926 17 261 3.2 4.8 0.00 0.00 0.00 50 1018.7
20260507162421 17 285 4.8 6.4 0.00 0.00 0.00 44 1018.8
20260507161919 17 342 1.6 1.6 0.00 0.00 0.00 48 1018.6
20260507161414 17 201 1.6 1.6 0.00 0.00 0.00 48 1018.7
20260507160911 17 292 3.2 6.4 0.00 0.00 0.00 46 1018.8
20260507160408 17 295 3.2 4.8 0.00 0.00 0.00 46 1018.7
20260507155904 16 289 6.4 6.4 0.00 0.00 0.00 43 1019.0
20260507155359 17 224 1.6 1.6 0.00 0.00 0.00 44 1018.9
20260507154857 16 265 1.6 4.8 0.00 0.00 0.00 49 1019.0
20260507154354 16 243 8.0 8.0 0.00 0.00 0.00 44 1019.0
20260507153851 16 194 6.4 6.4 0.00 0.00 0.00 50 1019.0
20260507153347 16 182 3.2 4.8 0.00 0.00 0.00 50 1019.2
20260507152844 16 273 3.2 4.8 0.00 0.00 0.00 46 1019.3
20260507152340 15 155 9.7 12.9 0.00 0.00 0.00 43 1019.4
20260507151836 16 202 6.4 6.4 0.00 0.00 0.00 41 1019.2
20260507151332 16 248 3.2 4.8 0.00 0.00 0.00 48 1019.3
20260507150830 16 174 1.6 1.6 0.00 0.00 0.00 48 1019.3
20260507150326 15 183 4.8 6.4 0.00 0.00 0.00 53 1019.2
20260507145822 15 169 3.2 6.4 0.00 0.00 0.00 52 1019.2
20260507145319 15 179 6.4 8.0 0.00 0.00 0.00 50 1019.4
20260507144816 14 202 4.8 6.4 0.00 0.00 0.00 50 1019.4
20260507144313 14 220 3.2 6.4 0.00 0.00 0.00 53 1019.5
20260507143810 13 211 6.4 8.0 0.00 0.00 0.00 55 1019.2
20260507143308 13 113 3.2 4.8 0.00 0.00 0.00 56 1019.2
20260507142803 13 205 4.8 6.4 0.00 0.00 0.00 55 1019.2
20260507142300 13 139 3.2 4.8 0.00 0.00 0.00 55 1019.0
20260507141756 13 176 3.2 4.8 0.00 0.00 0.00 62 1019.5
20260507141254 13 149 3.2 4.8 0.00 0.00 0.00 58 1019.0
20260507140749 13 240 8.0 8.0 0.00 0.00 0.00 61 1019.4
20260507140247 12 164 1.6 1.6 0.00 0.00 0.00 68 1019.5
20260507135744 12 193 4.8 6.4 0.00 0.00 0.00 65 1019.5
20260507135241 12 216 6.4 6.4 0.00 0.00 0.00 66 1019.3
20260507134737 12 222 6.4 6.4 0.00 0.00 0.00 67 1019.4
20260507134234 12 173 3.2 4.8 0.00 0.00 0.00 68 1019.5
20260507133730 11 257 0.0 1.6 0.00 0.00 0.00 75 1019.5
20260507133227 10 167 0.0 1.6 0.00 0.00 0.00 86 1019.2